Hourly Weather Algiers

Today, 8 July, Wednesday

Time Temperature Precipitation Wind Pressure Humidity
00:00 +28°C° 0 mm 3 mps 749 mmHg 46%
01:00 +27°C° 0 mm 3 mps 749 mmHg 47%
02:00 +27°C° 0 mm 3 mps 748 mmHg 48%
03:00 +27°C° 0 mm 3 mps 748 mmHg 49%
04:00 +27°C° 0 mm 3 mps 748 mmHg 49%
05:00 +27°C° 0 mm 4 mps 748 mmHg 49%
06:00 +28°C° 0 mm 4 mps 749 mmHg 49%
07:00 +29°C° 0 mm 4 mps 749 mmHg 45%
08:00 +32°C° 0 mm 5 mps 749 mmHg 41%
09:00 +33°C° 0 mm 5 mps 749 mmHg 37%
10:00 +34°C° 0 mm 6 mps 749 mmHg 38%
11:00 +34°C° 0 mm 6 mps 749 mmHg 39%
12:00 +34°C° 0 mm 7 mps 749 mmHg 40%
13:00 +34°C° 0 mm 7 mps 748 mmHg 40%
14:00 +34°C° 0 mm 7 mps 748 mmHg 40%
15:00 +34°C° 0 mm 7 mps 748 mmHg 40%
16:00 +33°C° 0 mm 7 mps 747 mmHg 42%
17:00 +33°C° 0 mm 7 mps 747 mmHg 43%
18:00 +32°C° 0 mm 6 mps 747 mmHg 44%
19:00 +30°C° 0 mm 6 mps 748 mmHg 47%
20:00 +29°C° 0 mm 6 mps 748 mmHg 49%
21:00 +28°C° 0 mm 5 mps 749 mmHg 51%
22:00 +28°C° 0 mm 6 mps 748 mmHg 53%
23:00 +27°C° 0 mm 6 mps 748 mmHg 55%

Tomorrow, 9 July, Thursday

Time Temperature Precipitation Wind Pressure Humidity
00:00 +27°C° 0 mm 6 mps 748 mmHg 57%
01:00 +27°C° 0 mm 6 mps 748 mmHg 54%
02:00 +27°C° 0 mm 5 mps 747 mmHg 51%
03:00 +28°C° 0 mm 5 mps 747 mmHg 48%
04:00 +28°C° 0 mm 5 mps 747 mmHg 45%
05:00 +29°C° 0 mm 5 mps 747 mmHg 42%
06:00 +30°C° 0 mm 5 mps 747 mmHg 39%
07:00 +32°C° 0 mm 5 mps 747 mmHg 36%
08:00 +34°C° 0 mm 5 mps 748 mmHg 33%
09:00 +36°C° 0 mm 5 mps 748 mmHg 30%
10:00 +36°C° 0 mm 5 mps 748 mmHg 30%
11:00 +38°C° 0 mm 6 mps 747 mmHg 30%
12:00 +39°C° 0 mm 6 mps 747 mmHg 30%
13:00 +38°C° 0 mm 6 mps 747 mmHg 31%
14:00 +38°C° 0 mm 6 mps 747 mmHg 32%
15:00 +36°C° 0 mm 6 mps 746 mmHg 33%
16:00 +35°C° 0 mm 6 mps 746 mmHg 38%
17:00 +33°C° 0 mm 5 mps 746 mmHg 42%
18:00 +32°C° 0 mm 5 mps 746 mmHg 46%
19:00 +30°C° 0 mm 4 mps 746 mmHg 49%
20:00 +29°C° 0 mm 4 mps 747 mmHg 53%
21:00 +28°C° 0 mm 4 mps 747 mmHg 56%
22:00 +29°C° 0 mm 3 mps 747 mmHg 53%
23:00 +29°C° 0 mm 3 mps 747 mmHg 49%

Day after tomorrow, 10 July, Friday

Time Temperature Precipitation Wind Pressure Humidity
00:00 +29°C° 0 mm 2 mps 746 mmHg 45%
01:00 +28°C° 0 mm 3 mps 746 mmHg 58%
02:00 +26°C° 0 mm 5 mps 746 mmHg 70%
03:00 +24°C° 0 mm 6 mps 746 mmHg 82%
04:00 +24°C° 0 mm 6 mps 746 mmHg 80%
05:00 +26°C° 0 mm 5 mps 747 mmHg 78%
06:00 +26°C° 0 mm 4 mps 747 mmHg 75%
07:00 +27°C° 0 mm 4 mps 747 mmHg 71%
08:00 +28°C° 0 mm 3 mps 747 mmHg 68%
09:00 +29°C° 0 mm 2 mps 747 mmHg 64%
10:00 +31°C° 0 mm 3 mps 747 mmHg 56%
11:00 +34°C° 0 mm 4 mps 747 mmHg 48%
12:00 +35°C° 0 mm 5 mps 747 mmHg 40%
13:00 +35°C° 0 mm 6 mps 746 mmHg 44%
14:00 +34°C° 0 mm 6 mps 746 mmHg 48%
15:00 +33°C° 0 mm 6 mps 746 mmHg 52%
16:00 +32°C° 0 mm 6 mps 746 mmHg 53%
17:00 +32°C° 0 mm 7 mps 746 mmHg 55%
18:00 +30°C° 0 mm 7 mps 745 mmHg 56%
19:00 +32°C° 0 mm 6 mps 746 mmHg 51%
20:00 +32°C° 0 mm 6 mps 746 mmHg 46%
21:00 +32°C° 0 mm 5 mps 746 mmHg 41%
22:00 +32°C° 0 mm 5 mps 746 mmHg 39%
23:00 +32°C° 0 mm 4 mps 746 mmHg 37%

11 July, Saturday

Time Temperature Precipitation Wind Pressure Humidity
00:00 +31°C° 0 mm 3 mps 745 mmHg 35%
01:00 +30°C° 0 mm 3 mps 745 mmHg 39%
02:00 +30°C° 0 mm 3 mps 745 mmHg 42%
03:00 +29°C° 0 mm 3 mps 745 mmHg 45%
04:00 +29°C° 0 mm 3 mps 745 mmHg 48%
05:00 +29°C° 0 mm 4 mps 745 mmHg 52%
06:00 +29°C° 0 mm 5 mps 746 mmHg 55%
07:00 +32°C° 0 mm 5 mps 746 mmHg 50%
08:00 +33°C° 0 mm 5 mps 746 mmHg 46%
09:00 +35°C° 0 mm 6 mps 746 mmHg 42%
10:00 +35°C° 0 mm 5 mps 746 mmHg 43%
11:00 +35°C° 0 mm 5 mps 746 mmHg 44%
12:00 +35°C° 0 mm 5 mps 746 mmHg 45%
13:00 +34°C° 0 mm 5 mps 746 mmHg 49%
14:00 +33°C° 0 mm 5 mps 745 mmHg 53%
15:00 +32°C° 0 mm 5 mps 745 mmHg 56%
16:00 +30°C° 0 mm 5 mps 745 mmHg 61%
17:00 +29°C° 0 mm 5 mps 746 mmHg 65%
18:00 +28°C° 0 mm 4 mps 746 mmHg 70%
19:00 +27°C° 0 mm 4 mps 746 mmHg 74%
20:00 +26°C° 0 mm 4 mps 747 mmHg 79%
21:00 +26°C° 0 mm 4 mps 748 mmHg 83%
22:00 +25°C° 0 mm 4 mps 747 mmHg 84%
23:00 +25°C° 0 mm 4 mps 747 mmHg 84%

12 July, Sunday

Time Temperature Precipitation Wind Pressure Humidity
00:00 +25°C° 0 mm 4 mps 747 mmHg 85%
01:00 +25°C° 0 mm 4 mps 747 mmHg 84%
02:00 +25°C° 0 mm 4 mps 747 mmHg 84%
03:00 +25°C° 0 mm 4 mps 746 mmHg 83%
04:00 +25°C° 0 mm 3 mps 746 mmHg 80%
05:00 +26°C° 0 mm 3 mps 747 mmHg 76%
06:00 +26°C° 0 mm 3 mps 747 mmHg 72%
07:00 +28°C° 0 mm 3 mps 747 mmHg 67%
08:00 +29°C° 0 mm 4 mps 747 mmHg 63%
09:00 +30°C° 0 mm 4 mps 748 mmHg 58%
10:00 +32°C° 0 mm 5 mps 747 mmHg 58%
11:00 +32°C° 0 mm 6 mps 747 mmHg 58%
12:00 +33°C° 0 mm 7 mps 747 mmHg 58%
13:00 +33°C° 0 mm 8 mps 747 mmHg 58%
14:00 +32°C° 0 mm 8 mps 747 mmHg 57%
15:00 +32°C° 0 mm 8 mps 746 mmHg 57%
16:00 +32°C° 0 mm 8 mps 746 mmHg 54%
17:00 +33°C° 0 mm 7 mps 746 mmHg 51%
18:00 +33°C° 0 mm 7 mps 746 mmHg 49%
19:00 +32°C° 0 mm 6 mps 747 mmHg 52%
20:00 +30°C° 0 mm 5 mps 747 mmHg 56%
21:00 +28°C° 0 mm 5 mps 747 mmHg 60%
22:00 +28°C° 0 mm 4 mps 747 mmHg 59%
23:00 +28°C° 0 mm 4 mps 747 mmHg 58%

13 July, Monday

Time Temperature Precipitation Wind Pressure Humidity
00:00 +28°C° 0 mm 3 mps 747 mmHg 57%
01:00 +27°C° 0 mm 3 mps 747 mmHg 66%
02:00 +26°C° 0 mm 4 mps 747 mmHg 75%
03:00 +25°C° 0 mm 4 mps 747 mmHg 84%
04:00 +26°C° 0 mm 3 mps 747 mmHg 83%
05:00 +26°C° 0 mm 3 mps 747 mmHg 82%
06:00 +26°C° 0 mm 2 mps 748 mmHg 81%
07:00 +27°C° 0 mm 2 mps 748 mmHg 77%
08:00 +28°C° 0 mm 3 mps 748 mmHg 73%
09:00 +28°C° 0 mm 3 mps 748 mmHg 69%
10:00 +29°C° 0 mm 3 mps 748 mmHg 67%
11:00 +29°C° 0 mm 3 mps 748 mmHg 65%
12:00 +30°C° 0 mm 3 mps 748 mmHg 62%
13:00 +30°C° 0 mm 3 mps 748 mmHg 61%
14:00 +30°C° 0 mm 4 mps 748 mmHg 59%
15:00 +30°C° 0 mm 4 mps 747 mmHg 57%
16:00 +29°C° 0 mm 3 mps 747 mmHg 60%
17:00 +28°C° 0 mm 3 mps 747 mmHg 63%
18:00 +28°C° 0 mm 3 mps 747 mmHg 66%
19:00 +27°C° 0 mm 3 mps 748 mmHg 72%
20:00 +26°C° 0 mm 2 mps 748 mmHg 78%
21:00 +25°C° 0 mm 2 mps 749 mmHg 83%
22:00 +25°C° 0 mm 2 mps 749 mmHg 84%
23:00 +25°C° 0 mm 2 mps 749 mmHg 85%
Show more